Station Historical Data
Daily Summary for June 17, 2017 Units:  English    Metric   Both
« Previous Day
Next Day »
Daily Weekly Monthly Yearly Custom
  High: Low: Average:
Temperature: 90.5 °F 70.2 °F 80.2 °F
Dew Point: 68.5 °F 61.9 °F 65.1 °F
Humidity: 79% 42% 62%
Wind Speed: 10.0mph 0.0mph 2.8mph
Wind Gust: 14.0mph - -
Wind- - SSW
Pressure: 29.82 in 29.68 in -
Precipitation: 0.00 in    
Historical Graphs
 
 
Tabular Data for June 17, 2017
Time Temperature Dew Point Pressure Wind Wind Speed Wind Gust Humidity Rainfall Rate (Hourly)
00:04 70.7 °F 62.0 °F 29.82 in Calm   3.0 mph 74% 0.00 in
00:09 70.6 °F 61.9 °F 29.82 in Calm   3.0 mph 74% 0.00 in
00:14 70.6 °F 61.9 °F 29.82 in Calm     74% 0.00 in
00:19 70.4 °F 62.1 °F 29.82 in Calm     75% 0.00 in
00:24 70.2 °F 62.3 °F 29.81 in Calm     76% 0.00 in
00:29 70.2 °F 62.3 °F 29.81 in Calm     76% 0.00 in
00:34 70.3 °F 62.4 °F 29.81 in Calm   3.0 mph 76% 0.00 in
00:44 70.8 °F 62.5 °F 29.82 in South 1.0 mph 2.0 mph 75% 0.00 in
00:49 70.7 °F 62.4 °F 29.81 in Calm   1.0 mph 75% 0.00 in
00:54 70.8 °F 62.5 °F 29.81 in South 1.0 mph 1.0 mph 75% 0.00 in
00:59 70.8 °F 62.5 °F 29.81 in Calm   1.0 mph 75% 0.00 in
01:04 71.0 °F 62.3 °F 29.81 in Calm     74% 0.00 in
01:09 71.2 °F 62.5 °F 29.81 in Calm     74% 0.00 in
01:14 71.3 °F 62.6 °F 29.81 in Calm   2.0 mph 74% 0.00 in
01:19 71.4 °F 62.7 °F 29.80 in South 1.0 mph 3.0 mph 74% 0.00 in
01:24 71.5 °F 62.8 °F 29.80 in South 1.0 mph 4.0 mph 74% 0.00 in
01:29 71.3 °F 62.6 °F 29.80 in Calm   2.0 mph 74% 0.00 in
01:34 71.2 °F 62.9 °F 29.80 in Calm   2.0 mph 75% 0.00 in
01:39 71.2 °F 62.9 °F 29.80 in Calm   3.0 mph 75% 0.00 in
01:44 71.2 °F 62.9 °F 29.80 in South 1.0 mph 3.0 mph 75% 0.00 in
01:49 71.2 °F 63.2 °F 29.80 in SSW 4.0 mph 5.0 mph 76% 0.00 in
01:54 71.3 °F 63.3 °F 29.80 in SSW 3.0 mph 5.0 mph 76% 0.00 in
01:59 71.4 °F 63.4 °F 29.79 in South 1.0 mph 5.0 mph 76% 0.00 in
02:04 71.4 °F 63.4 °F 29.79 in SSW 3.0 mph 5.0 mph 76% 0.00 in
02:09 71.4 °F 63.4 °F 29.79 in South 2.0 mph 5.0 mph 76% 0.00 in
02:14 71.4 °F 63.4 °F 29.79 in South 1.0 mph 4.0 mph 76% 0.00 in
02:19 71.3 °F 63.7 °F 29.79 in SSW 1.0 mph 5.0 mph 77% 0.00 in
02:24 71.4 °F 63.8 °F 29.78 in South 2.0 mph 5.0 mph 77% 0.00 in
02:29 71.4 °F 63.8 °F 29.78 in SSW 2.0 mph 4.0 mph 77% 0.00 in
02:34 71.5 °F 63.9 °F 29.79 in SSW 1.0 mph 5.0 mph 77% 0.00 in
02:39 71.6 °F 64.0 °F 29.78 in SSW 2.0 mph 5.0 mph 77% 0.00 in
02:44 71.8 °F 64.2 °F 29.79 in SSW 2.0 mph 7.0 mph 77% 0.00 in
02:49 71.9 °F 64.3 °F 29.79 in SSW 2.0 mph 7.0 mph 77% 0.00 in
02:54 72.0 °F 64.4 °F 29.79 in SSW 2.0 mph 7.0 mph 77% 0.00 in
02:59 72.1 °F 64.5 °F 29.79 in South 4.0 mph 7.0 mph 77% 0.00 in
03:04 72.1 °F 64.5 °F 29.78 in South 2.0 mph 6.0 mph 77% 0.00 in
03:09 72.0 °F 64.4 °F 29.78 in SSW 3.0 mph 6.0 mph 77% 0.00 in
03:14 72.0 °F 64.4 °F 29.78 in SSW 2.0 mph 7.0 mph 77% 0.00 in
03:19 72.0 °F 64.4 °F 29.78 in South 2.0 mph 5.0 mph 77% 0.00 in
03:24 71.9 °F 64.3 °F 29.78 in South 1.0 mph 5.0 mph 77% 0.00 in
03:29 71.7 °F 64.1 °F 29.78 in SW 2.0 mph 6.0 mph 77% 0.00 in
03:34 71.7 °F 64.1 °F 29.78 in SSW 2.0 mph 6.0 mph 77% 0.00 in
03:39 71.7 °F 64.1 °F 29.78 in SSW 3.0 mph 6.0 mph 77% 0.00 in
03:44 71.7 °F 64.1 °F 29.78 in SSW 3.0 mph 6.0 mph 77% 0.00 in
03:49 71.7 °F 64.1 °F 29.78 in SW 2.0 mph 5.0 mph 77% 0.00 in
03:54 71.8 °F 64.2 °F 29.78 in SSW 2.0 mph 5.0 mph 77% 0.00 in
03:59 71.7 °F 64.1 °F 29.78 in SSW 2.0 mph 3.0 mph 77% 0.00 in
04:04 71.7 °F 64.1 °F 29.78 in SSW 3.0 mph 5.0 mph 77% 0.00 in
04:09 71.8 °F 64.2 °F 29.78 in SSW 2.0 mph 7.0 mph 77% 0.00 in
04:14 71.9 °F 64.3 °F 29.77 in SSW 2.0 mph 8.0 mph 77% 0.00 in
04:19 72.1 °F 64.1 °F 29.77 in South 1.0 mph 9.0 mph 76% 0.00 in
04:24 72.1 °F 64.1 °F 29.77 in SSW 2.0 mph 6.0 mph 76% 0.00 in
04:29 72.1 °F 64.1 °F 29.77 in SSW 2.0 mph 7.0 mph 76% 0.00 in
04:34 72.1 °F 64.1 °F 29.78 in Calm   4.0 mph 76% 0.00 in
04:39 72.0 °F 64.4 °F 29.78 in SW 2.0 mph 5.0 mph 77% 0.00 in
04:44 72.0 °F 64.4 °F 29.78 in SW 2.0 mph 5.0 mph 77% 0.00 in
04:49 71.9 °F 64.3 °F 29.78 in SW 1.0 mph 5.0 mph 77% 0.00 in
04:54 71.9 °F 64.3 °F 29.77 in Calm   3.0 mph 77% 0.00 in
04:59 71.6 °F 64.0 °F 29.77 in Calm   3.0 mph 77% 0.00 in
05:04 71.5 °F 63.9 °F 29.77 in Calm   3.0 mph 77% 0.00 in
05:09 71.4 °F 63.8 °F 29.78 in South 2.0 mph 5.0 mph 77% 0.00 in
05:14 71.3 °F 63.7 °F 29.78 in South 2.0 mph 5.0 mph 77% 0.00 in
05:19 71.2 °F 64.0 °F 29.78 in South 2.0 mph 5.0 mph 78% 0.00 in
05:24 71.1 °F 63.9 °F 29.78 in SSW 1.0 mph 5.0 mph 78% 0.00 in
05:29 71.1 °F 63.9 °F 29.79 in South 1.0 mph 3.0 mph 78% 0.00 in
05:34 71.0 °F 63.8 °F 29.78 in South 2.0 mph 3.0 mph 78% 0.00 in
05:39 71.0 °F 63.8 °F 29.78 in Calm   3.0 mph 78% 0.00 in
05:44 71.0 °F 63.8 °F 29.78 in Calm   5.0 mph 78% 0.00 in
05:49 71.1 °F 63.5 °F 29.78 in Calm   5.0 mph 77% 0.00 in
05:54 71.1 °F 63.9 °F 29.78 in Calm   3.0 mph 78% 0.00 in
05:59 71.3 °F 63.7 °F 29.78 in SSE 1.0 mph 4.0 mph 77% 0.00 in
06:04 71.3 °F 63.7 °F 29.78 in SSE 1.0 mph 3.0 mph 77% 0.00 in
06:09 71.2 °F 63.6 °F 29.79 in SSE 2.0 mph 4.0 mph 77% 0.00 in
06:14 71.0 °F 63.8 °F 29.79 in SSE 2.0 mph 4.0 mph 78% 0.00 in
06:19 70.8 °F 63.6 °F 29.79 in SSE 2.0 mph 5.0 mph 78% 0.00 in
06:24 70.8 °F 63.6 °F 29.80 in SSE 2.0 mph 5.0 mph 78% 0.00 in
06:29 70.7 °F 63.5 °F 29.80 in South 1.0 mph 4.0 mph 78% 0.00 in
06:34 70.6 °F 63.4 °F 29.80 in South 1.0 mph 3.0 mph 78% 0.00 in
06:39 70.5 °F 63.7 °F 29.79 in Calm     79% 0.00 in
06:44 70.5 °F 63.7 °F 29.78 in Calm     79% 0.00 in
06:49 70.6 °F 63.8 °F 29.79 in SSE 1.0 mph 5.0 mph 79% 0.00 in
06:54 70.7 °F 63.9 °F 29.79 in Calm   3.0 mph 79% 0.00 in
06:59 70.8 °F 64.0 °F 29.79 in Calm   4.0 mph 79% 0.00 in
07:04 71.1 °F 64.3 °F 29.79 in Calm     79% 0.00 in
07:09 71.5 °F 63.9 °F 29.79 in South 2.0 mph 5.0 mph 77% 0.00 in
07:14 71.5 °F 63.9 °F 29.79 in SSE 1.0 mph 6.0 mph 77% 0.00 in
07:19 71.7 °F 64.1 °F 29.79 in SSE 2.0 mph 6.0 mph 77% 0.00 in
07:24 72.2 °F 64.6 °F 29.79 in South 2.0 mph 5.0 mph 77% 0.00 in
07:29 72.6 °F 64.6 °F 29.80 in South 3.0 mph 6.0 mph 76% 0.00 in
07:34 73.1 °F 64.7 °F 29.80 in SSE 2.0 mph 7.0 mph 75% 0.00 in
07:39 73.5 °F 64.7 °F 29.80 in South 2.0 mph 7.0 mph 74% 0.00 in
07:44 73.7 °F 64.5 °F 29.80 in SSW 3.0 mph 8.0 mph 73% 0.00 in
07:49 74.1 °F 64.5 °F 29.80 in SSW 4.0 mph 8.0 mph 72% 0.00 in
07:54 74.2 °F 64.6 °F 29.80 in South 4.0 mph 9.0 mph 72% 0.00 in
07:59 74.0 °F 64.4 °F 29.80 in South 4.0 mph 9.0 mph 72% 0.00 in
08:04 74.0 °F 64.8 °F 29.79 in South 3.0 mph 9.0 mph 73% 0.00 in
08:09 74.8 °F 64.8 °F 29.79 in SW 2.0 mph 8.0 mph 71% 0.00 in
08:14 75.5 °F 65.0 °F 29.79 in South 4.0 mph 9.0 mph 70% 0.00 in
08:19 75.9 °F 65.0 °F 29.79 in South 2.0 mph 7.0 mph 69% 0.00 in
08:24 76.2 °F 65.3 °F 29.80 in SSW 5.0 mph 8.0 mph 69% 0.00 in
08:29 76.5 °F 66.0 °F 29.79 in South 3.0 mph 9.0 mph 70% 0.00 in
08:34 77.0 °F 65.2 °F 29.79 in South 4.0 mph 7.0 mph 67% 0.00 in
08:39 77.5 °F 66.1 °F 29.79 in South 2.0 mph 7.0 mph 68% 0.00 in
08:44 77.6 °F 65.3 °F 29.79 in South 3.0 mph 8.0 mph 66% 0.00 in
08:49 77.4 °F 65.6 °F 29.79 in South 3.0 mph 9.0 mph 67% 0.00 in
08:54 78.0 °F 66.2 °F 29.79 in South 3.0 mph 9.0 mph 67% 0.00 in
08:59 78.2 °F 65.9 °F 29.79 in South 4.0 mph 9.0 mph 66% 0.00 in
09:04 78.9 °F 67.0 °F 29.79 in South 4.0 mph 11.0 mph 67% 0.00 in
09:09 79.5 °F 65.8 °F 29.78 in WSW 2.0 mph 9.0 mph 63% 0.00 in
09:14 79.6 °F 66.8 °F 29.78 in SSW 4.0 mph 7.0 mph 65% 0.00 in
09:19 79.8 °F 66.5 °F 29.78 in South 4.0 mph 7.0 mph 64% 0.00 in
09:24 80.3 °F 66.6 °F 29.79 in South 5.0 mph 8.0 mph 63% 0.00 in
09:29 81.0 °F 67.2 °F 29.78 in SSE 4.0 mph 8.0 mph 63% 0.00 in
09:34 81.0 °F 66.8 °F 29.79 in South 3.0 mph 9.0 mph 62% 0.00 in
09:39 80.6 °F 66.4 °F 29.79 in South 4.0 mph 9.0 mph 62% 0.00 in
09:44 80.5 °F 66.3 °F 29.79 in SSW 4.0 mph 9.0 mph 62% 0.00 in
09:49 80.9 °F 66.7 °F 29.79 in SSW 3.0 mph 10.0 mph 62% 0.00 in
09:54 81.6 °F 67.3 °F 29.78 in SSW 3.0 mph 10.0 mph 62% 0.00 in
09:59 82.1 °F 66.8 °F 29.78 in SSW 3.0 mph 9.0 mph 60% 0.00 in
10:04 82.4 °F 68.1 °F 29.78 in SSW 3.0 mph 8.0 mph 62% 0.00 in
10:09 83.2 °F 66.4 °F 29.78 in SSE 6.0 mph 12.0 mph 57% 0.00 in
10:14 82.8 °F 66.0 °F 29.78 in South 4.0 mph 12.0 mph 57% 0.00 in
10:19 82.5 °F 66.2 °F 29.78 in SSW 4.0 mph 7.0 mph 58% 0.00 in
10:24 82.6 °F 66.3 °F 29.78 in SSW 4.0 mph 7.0 mph 58% 0.00 in
10:29 82.6 °F 66.3 °F 29.78 in SSW 5.0 mph 9.0 mph 58% 0.00 in
10:34 82.7 °F 65.9 °F 29.78 in South 4.0 mph 10.0 mph 57% 0.00 in
10:39 82.8 °F 65.5 °F 29.78 in SSW 2.0 mph 7.0 mph 56% 0.00 in
10:44 83.8 °F 66.4 °F 29.78 in WSW 6.0 mph 10.0 mph 56% 0.00 in
10:49 84.0 °F 67.1 °F 29.78 in SW 4.0 mph 10.0 mph 57% 0.00 in
10:54 84.1 °F 66.2 °F 29.78 in SW 5.0 mph 8.0 mph 55% 0.00 in
10:59 84.8 °F 66.8 °F 29.78 in SW 5.0 mph 10.0 mph 55% 0.00 in
11:04 84.5 °F 66.6 °F 29.78 in SW 5.0 mph 10.0 mph 55% 0.00 in
11:09 84.8 °F 66.3 °F 29.78 in SSW 5.0 mph 9.0 mph 54% 0.00 in
11:14 84.8 °F 66.3 °F 29.78 in SSW 5.0 mph 9.0 mph 54% 0.00 in
11:19 84.8 °F 65.2 °F 29.78 in SSE 8.0 mph 9.0 mph 52% 0.00 in
11:24 85.1 °F 64.9 °F 29.78 in West 2.0 mph 10.0 mph 51% 0.00 in
11:29 85.0 °F 64.3 °F 29.78 in SW 4.0 mph 14.0 mph 50% 0.00 in
11:34 85.5 °F 67.0 °F 29.78 in SW 2.0 mph 8.0 mph 54% 0.00 in
11:39 86.4 °F 65.0 °F 29.78 in SW 3.0 mph 8.0 mph 49% 0.00 in
11:44 86.8 °F 65.3 °F 29.77 in SW 4.0 mph 10.0 mph 49% 0.00 in
11:49 86.6 °F 65.2 °F 29.77 in SW 5.0 mph 10.0 mph 49% 0.00 in
11:54 85.9 °F 65.7 °F 29.77 in SW 4.0 mph 9.0 mph 51% 0.00 in
11:59 86.5 °F 62.6 °F 29.77 in SW 2.0 mph 9.0 mph 45% 0.00 in
12:04 87.2 °F 65.7 °F 29.77 in SW 4.0 mph 9.0 mph 49% 0.00 in
12:09 86.1 °F 63.5 °F 29.77 in Calm   8.0 mph 47% 0.00 in
12:14 86.8 °F 62.3 °F 29.77 in SW 4.0 mph 10.0 mph 44% 0.00 in
12:19 86.6 °F 64.0 °F 29.77 in SSW 4.0 mph 11.0 mph 47% 0.00 in
12:24 86.6 °F 62.7 °F 29.76 in SW 5.0 mph 13.0 mph 45% 0.00 in
12:29 86.7 °F 63.4 °F 29.76 in SW 5.0 mph 13.0 mph 46% 0.00 in
12:34 86.9 °F 63.0 °F 29.75 in SW 5.0 mph 11.0 mph 45% 0.00 in
12:39 86.7 °F 62.8 °F 29.75 in SW 8.0 mph 8.0 mph 45% 0.00 in
12:44 86.9 °F 62.4 °F 29.75 in SW 3.0 mph 8.0 mph 44% 0.00 in
12:49 87.2 °F 66.3 °F 29.74 in SE 3.0 mph 8.0 mph 50% 0.00 in
12:54 87.2 °F 67.4 °F 29.74 in SW 5.0 mph 5.0 mph 52% 0.00 in
12:59 87.2 °F 65.1 °F 29.74 in WSW 6.0 mph 13.0 mph 48% 0.00 in
13:04 87.7 °F 65.6 °F 29.74 in WSW 4.0 mph 8.0 mph 48% 0.00 in
13:09 87.2 °F 65.7 °F 29.74 in WSW 2.0 mph 12.0 mph 49% 0.00 in
13:14 87.0 °F 64.9 °F 29.73 in SW 4.0 mph 12.0 mph 48% 0.00 in
13:19 87.3 °F 65.2 °F 29.73 in SW 4.0 mph 10.0 mph 48% 0.00 in
13:24 87.0 °F 64.3 °F 29.73 in SW 4.0 mph 11.0 mph 47% 0.00 in
13:29 86.9 °F 66.6 °F 29.73 in SW 4.0 mph 11.0 mph 51% 0.00 in
13:34 87.7 °F 65.0 °F 29.73 in West 4.0 mph 10.0 mph 47% 0.00 in
13:39 88.4 °F 68.5 °F 29.73 in SSW 3.0 mph 6.0 mph 52% 0.00 in
13:44 87.4 °F 65.9 °F 29.73 in WSW 4.0 mph 8.0 mph 49% 0.00 in
13:49 87.9 °F 66.4 °F 29.73 in SW 4.0 mph 9.0 mph 49% 0.00 in
13:54 87.4 °F 65.9 °F 29.73 in SE 1.0 mph 7.0 mph 49% 0.00 in
13:59 88.9 °F 64.8 °F 29.73 in SE 3.0 mph 7.0 mph 45% 0.00 in
14:04 88.8 °F 66.0 °F 29.73 in SW 2.0 mph 11.0 mph 47% 0.00 in
14:09 88.3 °F 67.3 °F 29.73 in SSW 5.0 mph 11.0 mph 50% 0.00 in
14:14 88.3 °F 66.1 °F 29.72 in SSW 4.0 mph 9.0 mph 48% 0.00 in
14:19 89.0 °F 67.4 °F 29.73 in SSW 3.0 mph 11.0 mph 49% 0.00 in
14:24 88.4 °F 66.8 °F 29.73 in SSW 5.0 mph 13.0 mph 49% 0.00 in
14:29 88.9 °F 66.7 °F 29.73 in SW 3.0 mph 7.0 mph 48% 0.00 in
14:34 89.6 °F 66.7 °F 29.73 in SSE 2.0 mph 11.0 mph 47% 0.00 in
14:39 89.4 °F 65.3 °F 29.73 in SSW 8.0 mph 10.0 mph 45% 0.00 in
14:44 88.8 °F 63.4 °F 29.73 in SSW 6.0 mph 12.0 mph 43% 0.00 in
14:49 89.4 °F 65.9 °F 29.73 in SSW 5.0 mph 12.0 mph 46% 0.00 in
14:54 89.7 °F 66.2 °F 29.72 in SSW 6.0 mph 9.0 mph 46% 0.00 in
14:59 89.6 °F 66.7 °F 29.72 in South 7.0 mph 11.0 mph 47% 0.00 in
15:04 90.2 °F 64.7 °F 29.72 in SSW 7.0 mph 10.0 mph 43% 0.00 in
15:09 90.0 °F 63.8 °F 29.73 in South 5.0 mph 10.0 mph 42% 0.00 in
15:14 90.0 °F 65.2 °F 29.73 in SSW 6.0 mph 11.0 mph 44% 0.00 in
15:19 90.2 °F 64.0 °F 29.73 in SW 6.0 mph 11.0 mph 42% 0.00 in
15:24 90.5 °F 65.6 °F 29.72 in SW 10.0 mph 10.0 mph 44% 0.00 in
15:29 89.7 °F 66.2 °F 29.73 in SW 8.0 mph 13.0 mph 46% 0.00 in
15:34 89.4 °F 66.5 °F 29.72 in SSW 1.0 mph 13.0 mph 47% 0.00 in
15:39 90.0 °F 67.1 °F 29.73 in SW 5.0 mph 13.0 mph 47% 0.00 in
15:44 90.0 °F 67.1 °F 29.72 in WSW 5.0 mph 10.0 mph 47% 0.00 in
15:49 89.6 °F 65.4 °F 29.72 in WSW 6.0 mph 11.0 mph 45% 0.00 in
15:54 89.5 °F 66.6 °F 29.71 in WSW 6.0 mph 11.0 mph 47% 0.00 in
15:59 88.9 °F 66.1 °F 29.71 in SW 5.0 mph 11.0 mph 47% 0.00 in
16:04 88.0 °F 64.0 °F 29.72 in SSE 3.0 mph 9.0 mph 45% 0.00 in
16:09 88.4 °F 65.6 °F 29.72 in WSW 4.0 mph 9.0 mph 47% 0.00 in
16:14 88.5 °F 65.7 °F 29.72 in West 5.0 mph 8.0 mph 47% 0.00 in
16:19 88.7 °F 64.6 °F 29.72 in West 4.0 mph 8.0 mph 45% 0.00 in
16:24 88.1 °F 65.3 °F 29.72 in WSW 6.0 mph 10.0 mph 47% 0.00 in
16:29 88.9 °F 65.4 °F 29.72 in WSW 3.0 mph 8.0 mph 46% 0.00 in
16:34 89.7 °F 66.8 °F 29.72 in NW 4.0 mph 8.0 mph 47% 0.00 in
16:39 89.2 °F 65.1 °F 29.72 in WSW 5.0 mph 8.0 mph 45% 0.00 in
16:44 88.6 °F 65.2 °F 29.72 in SW 5.0 mph 10.0 mph 46% 0.00 in
16:49 89.1 °F 65.0 °F 29.72 in WSW 5.0 mph 10.0 mph 45% 0.00 in
16:54 88.6 °F 65.8 °F 29.72 in WSW 4.0 mph 9.0 mph 47% 0.00 in
16:59 88.8 °F 65.4 °F 29.72 in WSW 5.0 mph 9.0 mph 46% 0.00 in
17:04 88.8 °F 66.6 °F 29.71 in SSW 4.0 mph 6.0 mph 48% 0.00 in
17:09 88.9 °F 66.1 °F 29.71 in SSW 3.0 mph 8.0 mph 47% 0.00 in
17:14 88.7 °F 67.1 °F 29.71 in West 3.0 mph 6.0 mph 49% 0.00 in
17:19 89.1 °F 66.9 °F 29.71 in South 3.0 mph 7.0 mph 48% 0.00 in
17:24 88.9 °F 66.1 °F 29.71 in South 1.0 mph 10.0 mph 47% 0.00 in
17:29 88.9 °F 65.4 °F 29.71 in South 2.0 mph 5.0 mph 46% 0.00 in
17:34 88.8 °F 66.6 °F 29.71 in West 5.0 mph 7.0 mph 48% 0.00 in
17:39 88.9 °F 65.4 °F 29.71 in South 5.0 mph 7.0 mph 46% 0.00 in
17:44 88.6 °F 65.8 °F 29.70 in SSW 4.0 mph 10.0 mph 47% 0.00 in
17:49 88.6 °F 66.4 °F 29.70 in SW 3.0 mph 10.0 mph 48% 0.00 in
17:54 88.2 °F 66.6 °F 29.70 in SW 4.0 mph 8.0 mph 49% 0.00 in
17:59 88.5 °F 67.5 °F 29.70 in SSW 4.0 mph 8.0 mph 50% 0.00 in
18:04 88.4 °F 66.8 °F 29.70 in SW 4.0 mph 8.0 mph 49% 0.00 in
18:09 87.7 °F 66.8 °F 29.70 in SSE 2.0 mph 8.0 mph 50% 0.00 in
18:14 87.5 °F 66.6 °F 29.70 in SW 3.0 mph 7.0 mph 50% 0.00 in
18:19 86.9 °F 66.0 °F 29.70 in South 1.0 mph 4.0 mph 50% 0.00 in
18:24 86.4 °F 66.7 °F 29.70 in West 1.0 mph 6.0 mph 52% 0.00 in
18:29 86.8 °F 66.5 °F 29.70 in SW 6.0 mph 6.0 mph 51% 0.00 in
18:34 86.5 °F 66.2 °F 29.70 in SW 3.0 mph 8.0 mph 51% 0.00 in
18:39 86.4 °F 66.1 °F 29.70 in SW 3.0 mph 8.0 mph 51% 0.00 in
18:44 86.2 °F 67.1 °F 29.70 in SW 3.0 mph 7.0 mph 53% 0.00 in
18:49 86.1 °F 66.4 °F 29.70 in SW 4.0 mph 7.0 mph 52% 0.00 in
18:54 85.9 °F 66.2 °F 29.70 in SW 3.0 mph 7.0 mph 52% 0.00 in
18:59 85.4 °F 66.9 °F 29.70 in SW 3.0 mph 5.0 mph 54% 0.00 in
19:04 85.3 °F 66.8 °F 29.70 in SW 4.0 mph 5.0 mph 54% 0.00 in
19:09 85.3 °F 66.8 °F 29.70 in SW 3.0 mph 5.0 mph 54% 0.00 in
19:14 85.2 °F 66.7 °F 29.70 in SW 4.0 mph 6.0 mph 54% 0.00 in
19:19 85.3 °F 67.3 °F 29.69 in SW 2.0 mph 5.0 mph 55% 0.00 in
19:24 85.2 °F 66.7 °F 29.69 in SW 2.0 mph 4.0 mph 54% 0.00 in
19:29 85.2 °F 66.7 °F 29.69 in SSW 2.0 mph 5.0 mph 54% 0.00 in
19:34 85.4 °F 66.9 °F 29.69 in SW 2.0 mph 3.0 mph 54% 0.00 in
19:39 85.3 °F 67.3 °F 29.69 in SSW 2.0 mph 4.0 mph 55% 0.00 in
19:44 85.1 °F 67.6 °F 29.69 in SSW 2.0 mph 5.0 mph 56% 0.00 in
19:49 84.9 °F 67.5 °F 29.69 in SSW 2.0 mph 6.0 mph 56% 0.00 in
19:54 84.7 °F 66.7 °F 29.69 in SSW 2.0 mph 6.0 mph 55% 0.00 in
19:59 84.5 °F 66.6 °F 29.69 in SSW 2.0 mph 7.0 mph 55% 0.00 in
20:04 84.3 °F 66.4 °F 29.68 in South 6.0 mph 8.0 mph 55% 0.00 in
20:09 84.3 °F 66.4 °F 29.68 in SSW 4.0 mph 8.0 mph 55% 0.00 in
20:14 84.1 °F 66.2 °F 29.68 in SSW 2.0 mph 6.0 mph 55% 0.00 in
20:19 83.9 °F 66.0 °F 29.68 in South 1.0 mph 6.0 mph 55% 0.00 in
20:24 83.8 °F 65.9 °F 29.68 in SSE 5.0 mph 9.0 mph 55% 0.00 in
20:29 83.6 °F 66.2 °F 29.68 in SSW 3.0 mph 5.0 mph 56% 0.00 in
20:34 83.3 °F 66.0 °F 29.68 in SSW 1.0 mph 5.0 mph 56% 0.00 in
20:39 83.1 °F 65.8 °F 29.68 in SSW 2.0 mph 5.0 mph 56% 0.00 in
20:44 82.9 °F 66.1 °F 29.69 in SSW 2.0 mph 7.0 mph 57% 0.00 in
20:49 82.7 °F 65.9 °F 29.69 in South 3.0 mph 7.0 mph 57% 0.00 in
20:54 82.6 °F 66.3 °F 29.69 in South 2.0 mph 7.0 mph 58% 0.00 in
20:59 82.4 °F 66.1 °F 29.69 in South 1.0 mph 7.0 mph 58% 0.00 in
21:04 82.4 °F 65.6 °F 29.69 in SSW 2.0 mph 4.0 mph 57% 0.00 in
21:09 82.2 °F 65.4 °F 29.69 in SSW 2.0 mph 6.0 mph 57% 0.00 in
21:14 82.1 °F 65.9 °F 29.69 in SSW 5.0 mph 6.0 mph 58% 0.00 in
21:19 81.8 °F 65.6 °F 29.69 in SSW 3.0 mph 7.0 mph 58% 0.00 in
21:24 81.7 °F 65.5 °F 29.69 in SSW 2.0 mph 5.0 mph 58% 0.00 in
21:29 81.5 °F 65.8 °F 29.70 in SSW 3.0 mph 6.0 mph 59% 0.00 in
21:34 81.4 °F 65.7 °F 29.70 in SSW 3.0 mph 6.0 mph 59% 0.00 in
21:39 81.3 °F 65.6 °F 29.70 in SSW 2.0 mph 6.0 mph 59% 0.00 in
21:44 81.1 °F 65.4 °F 29.70 in SSW 2.0 mph 6.0 mph 59% 0.00 in
21:49 80.7 °F 65.5 °F 29.71 in South 3.0 mph 4.0 mph 60% 0.00 in
21:54 80.5 °F 65.3 °F 29.71 in South 1.0 mph 5.0 mph 60% 0.00 in
21:59 80.4 °F 65.7 °F 29.71 in SSW 2.0 mph 5.0 mph 61% 0.00 in
22:04 80.2 °F 65.5 °F 29.71 in SSW 1.0 mph 7.0 mph 61% 0.00 in
22:09 79.9 °F 65.2 °F 29.71 in South 2.0 mph 7.0 mph 61% 0.00 in
22:14 79.8 °F 65.2 °F 29.71 in South 2.0 mph 6.0 mph 61% 0.00 in
22:19 79.7 °F 65.1 °F 29.72 in SSW 2.0 mph 4.0 mph 61% 0.00 in
22:24 79.7 °F 65.1 °F 29.72 in SSW 2.0 mph 5.0 mph 61% 0.00 in
22:29 79.7 °F 65.1 °F 29.72 in South 2.0 mph 5.0 mph 61% 0.00 in
22:34 79.6 °F 65.0 °F 29.72 in South 6.0 mph 7.0 mph 61% 0.00 in
22:39 79.5 °F 65.3 °F 29.71 in South 3.0 mph 7.0 mph 62% 0.00 in
22:44 79.2 °F 65.1 °F 29.71 in South 3.0 mph 7.0 mph 62% 0.00 in
22:49 79.1 °F 65.4 °F 29.71 in South 2.0 mph 5.0 mph 63% 0.00 in
22:54 79.0 °F 65.3 °F 29.71 in South 3.0 mph 6.0 mph 63% 0.00 in
22:59 78.9 °F 65.2 °F 29.71 in SSE 3.0 mph 7.0 mph 63% 0.00 in
23:04 78.9 °F 65.2 °F 29.71 in SSW 2.0 mph 5.0 mph 63% 0.00 in
23:09 78.8 °F 65.1 °F 29.71 in South 2.0 mph 5.0 mph 63% 0.00 in
23:14 78.8 °F 65.1 °F 29.71 in South 3.0 mph 6.0 mph 63% 0.00 in
23:19 78.7 °F 65.0 °F 29.71 in South 3.0 mph 6.0 mph 63% 0.00 in
23:24 78.7 °F 65.0 °F 29.71 in South 2.0 mph 6.0 mph 63% 0.00 in
23:29 78.5 °F 64.9 °F 29.71 in South 2.0 mph 6.0 mph 63% 0.00 in
23:34 78.2 °F 65.0 °F 29.71 in South 2.0 mph 3.0 mph 64% 0.00 in
23:39 78.0 °F 65.3 °F 29.71 in South 1.0 mph 4.0 mph 65% 0.00 in
23:44 78.0 °F 65.7 °F 29.70 in South 4.0 mph 6.0 mph 66% 0.00 in
23:49 78.2 °F 65.9 °F 29.70 in West 1.0 mph 7.0 mph 66% 0.00 in
23:54 78.2 °F 66.3 °F 29.70 in SSE 3.0 mph 9.0 mph 67% 0.00 in
23:59 78.4 °F 66.5 °F 29.70 in SSW 4.0 mph 9.0 mph 67% 0.00 in
Buffalo, New York, USA
Compliments of Weather Underground - 2.5 mb